Change the Weather History Date:

Wednesday, June 4, 2014

  Actual Average Record
Temperature  
Mean Temperature 65 °F 64 °F  
Max Temperature 79 °F 76 °F 99 °F (1933)
Min Temperature 51 °F 52 °F 37 °F (1951)
Degree Days  
Heating Degree Days 0 3  
Month to date heating degree days 10 14  
Since 1 June heating degree days 10 14  
Since 1 July heating degree days 8297 7635  
Cooling Degree Days 0 2  
Month to date cooling degree days 5 8  
Year to date cooling degree days 67 41  
Since 1 June cooling degree days 5 8  
Growing Degree Days 15 (Base 50)    
Moisture  
Dew Point 55 °F    
Average Humidity 73    
Maximum Humidity 100    
Minimum Humidity 45    
Precipitation  
Precipitation 0.00 in 0.14 in 3.52 in (1914)
Month to date precipitation 0.39 0.56  
Year to date precipitation 4.88 8.54  
Snow  
Snow 0.00 in 0.00 in 0.00 in ()
Month to date snowfall 0.0 0.0  
Since 1 June snowfall 0.0 0.0  
Since 1 July snowfall 28.6 43.9  
Snow Depth 0.00 in    
Sea Level Pressure  
Sea Level Pressure 29.88 in    
Wind  
Wind Speed 4 mph (WNW)    
Max Wind Speed 9 mph    
Max Gust Speed 14 mph    
Visibility 6 miles    
Events Fog    
T = Trace of Precipitation, MM = Missing Value Source: NWS Daily Summary

Daily Weather History Graph

Daily Weather History Graph

Search for Another Location

Airport or City:

Trip Planner

Search our weather history database for the weather conditions in past years. The results will help you decide how hot, cold, wet, or windy it might be!

Date:

Astronomy

Jun. 04, 2014 Rise Set
Actual Time 5:50 AM CDT 9:12 PM CDT
Civil Twilight 5:14 AM CDT 9:48 PM CDT
Nautical Twilight 4:27 AM CDT 10:35 PM CDT
Astronomical Twilight 3:28 AM CDT 11:35 PM CDT
Moon 12:21 PM CDT (6/4) 1:02 AM CDT (6/4)
Length of Visible Light 16h 34m
Length of Day
15h 22m
Waxing Crescent, 39% of the Moon is Illuminated
Jun 4
Waxing Crescent
Jun 5
First Quarter
Jun 12
Full
Jun 19
Last Quarter
Jun 27
New

Hourly Weather History & Observations

Time (CDT) Temp. Dew Point Humidity Pressure Visibility Wind Dir Wind Speed Gust Speed Precip Events Conditions
12:55 AM 57.0 °F 55.9 °F 96% 29.83 in 5.0 mi North 3.5 mph - N/A   Clear
1:55 AM 57.9 °F 55.9 °F 93% 29.86 in 4.0 mi ENE 5.8 mph - N/A   Clear
2:55 AM 57.0 °F 55.0 °F 93% 29.88 in 4.0 mi WNW 3.5 mph - N/A   Partly Cloudy
3:08 AM 55.9 °F 55.0 °F 97% 29.88 in 2.5 mi West 4.6 mph - N/A   Clear
3:55 AM 55.0 °F 54.0 °F 96% 29.89 in 2.0 mi NW 6.9 mph - N/A   Partly Cloudy
4:10 AM 54.0 °F 53.1 °F 97% 29.88 in 1.5 mi NW 5.8 mph - N/A   Clear
4:27 AM 53.1 °F 52.0 °F 96% 29.88 in 0.8 mi NW 5.8 mph - N/A   Mist
4:55 AM 53.1 °F 52.0 °F 96% 29.88 in 0.2 mi WNW 5.8 mph - N/A Fog Fog
5:37 AM 52.0 °F 51.1 °F 97% 29.89 in 1.0 mi NNW 3.5 mph - N/A   Mist
5:49 AM 51.8 °F 50.0 °F 94% 29.89 in 0.2 mi WNW 5.8 mph - N/A Fog Fog
5:50 AM 51.1 °F 50.0 °F 96% 29.89 in 0.2 mi WNW 5.8 mph - N/A Fog Fog
6:02 AM 51.1 °F 51.1 °F 100% 29.89 in 0.2 mi WNW 4.6 mph - N/A Fog Fog
6:17 AM 52.0 °F 51.1 °F 97% 29.89 in 0.8 mi NW 3.5 mph - N/A   Mist
6:21 AM 52.0 °F 51.1 °F 97% 29.89 in 1.2 mi NW 3.5 mph - N/A   Partly Cloudy
6:55 AM 54.0 °F 53.1 °F 97% 29.90 in 2.5 mi NW 3.5 mph - N/A   Clear
7:15 AM 55.9 °F 55.0 °F 97% 29.90 in 3.0 mi NNW 5.8 mph - N/A   Clear
7:55 AM 60.1 °F 57.9 °F 93% 29.90 in 5.0 mi North 4.6 mph - N/A   Mostly Cloudy
8:55 AM 63.0 °F 59.0 °F 87% 29.91 in 8.0 mi NNW 4.6 mph - N/A   Overcast
9:55 AM 64.9 °F 59.0 °F 81% 29.91 in 9.0 mi Calm Calm - N/A   Overcast
10:55 AM 68.0 °F 57.9 °F 70% 29.92 in 10.0 mi Calm Calm - N/A   Overcast
11:55 AM 71.1 °F 57.9 °F 63% 29.92 in 10.0 mi East 6.9 mph - N/A   Scattered Clouds
12:55 PM 72.0 °F 57.9 °F 61% 29.91 in 10.0 mi ESE 4.6 mph - N/A   Overcast
1:55 PM 73.9 °F 57.9 °F 57% 29.90 in 10.0 mi SE 5.8 mph - N/A   Overcast
2:55 PM 73.9 °F 57.0 °F 55% 29.88 in 10.0 mi Calm Calm - N/A   Partly Cloudy
3:55 PM 78.1 °F 55.9 °F 46% 29.86 in 10.0 mi Calm Calm - N/A   Partly Cloudy
4:55 PM 77.0 °F 55.9 °F 48% 29.85 in 10.0 mi ESE 6.9 mph - N/A   Clear
5:55 PM 78.1 °F 55.0 °F 45% 29.83 in 10.0 mi SSE 5.8 mph - N/A   Partly Cloudy
6:55 PM 77.0 °F 55.0 °F 47% 29.81 in 10.0 mi SSE 6.9 mph - N/A   Clear
7:55 PM 75.0 °F 54.0 °F 48% 29.82 in 10.0 mi South 6.9 mph - N/A   Clear
8:55 PM 72.0 °F 55.0 °F 55% 29.82 in 10.0 mi SE 3.5 mph - N/A   Clear
9:55 PM 69.8 °F 57.2 °F 64% 29.85 in 10.0 mi South 3.5 mph - N/A   Clear
10:55 PM 69.1 °F 57.9 °F 68% 29.86 in 10.0 mi South 3.5 mph - N/A   Clear
11:55 PM 66.0 °F 59.0 °F 78% 29.88 in 10.0 mi WSW 4.6 mph - N/A   Mostly Cloudy